User: anonymous   Login
Location: Unspecified
(0.0000°N, 0.0000°E)
Time: 07:20:19
(UTC+00:00)
Language:

DSCS II F-15 - Orbit

View from above orbital plane
View from above orbital plane
View from above satellite
View from above satellite

Ground track
Ground track

The orbit data is extracted from the following two-line orbital elements,

1 20202U 89069A   18213.76241610 0.00000000  00000-0  00000-0 0    03
2 20202  15.3151 359.6924 0012930 206.2336 153.7129  0.98605436    08
Epoch (UTC): 01 August 2018 18:17:52
Eccentricity: 0.0012930
inclination: 15.3151°
perigee height: 36205 km
apogee height: 36315 km
right ascension of ascending node: 359.6924°
argument of perigee: 206.2336°
revolutions per day: 0.98605436
mean anomaly at epoch: 153.7129°
orbit number at epoch: 0

The dashed part of the orbit path shows where the satellite is in the earth's shadow,  

DLR